STARLINK-33730 (63439 NORAD) Tracking and Keplerian Element Data

This shows tracking and keplerian element data for the satellite.

Feedback or suggestion? Click here.




ElementValue
Catalog63439
NameSTARLINK-33730
Epoch Orbit4118
Epoch Day353.84362345
Epoch Year2025
RAAN153.0915
Inclination53.1578
Eccentricity0.0001507
Argument of Perigee85.0711
Mean Anonmoly275.0462
Mean Motion15.30198587
Decay Rate0.00025717
L11 63439U 25069G 25353.84362345 .00025717 00000+0 87745-3 0 9995
L22 63439 53.1578 153.0915 0001507 85.0711 275.0462 15.30198587 41182



Live tracking and technical data element details for STARLINK-33730 (NORAD 63439). STARLINK-33730 can be tracked NOW for your location showing map with azimuth and elevation plus other details from your city location.







IsCatalogInMostPopularTable: catalog: 63439, numindb: 2
Update: records affected: 1



GetName: 63439 STARLINK-33730

Hit Count: updated at: Sat, 07 Feb 2026 08:31:20 GMT